SAUDISAT 1B

Satellite information

Favourite Embed

Satellite Type and Status

PAYLOADIN ORBIT

Key statistics

Satellite SAUDISAT 1B at a glance.

Uptime

9156

Days in orbit

Revolutions

≈ 14.9

Per day

Orbit

LEO

Low Earth Orbit

Inclination

64.6

Latest

Satellite identification and parameters

Extended collection of information and parameters for SAUDISAT 1B.

Object identification

Identified? True

Debris? False

Object name: SAUDISAT 1B

International designator: 2000-057E

Object number (NORAD): 26549

Object ID (CCSDS): 26549

Country: SAUDI ARABIA (SAUD)

Current information (Y/N): Y

RCS size: SMALL

Orbital parameters

Period: 96.628 minutes

Inclination: 64.5525 deg

SMA: 6975.285 km

Apoapsis: 609.699 km

Periapsis: 584.601 km

RAAN: 25.1715 deg

Eccentricy: 0.00179912

Argument of periapsis: 346.457 deg

Mean anomaly: 13.6055 deg

Mean motion: 14.90252362 rev/day

Mean motion (dot): 0.00002908 rev/day2

B* drag term: 0.00031353795 1/REarth

Two-line elements (TLE)

Creation date: Oct. 21, 2025, 3:26 a.m.

Reference frame: TEME

Reference center: EARTH

Epoch: Oct. 20, 2025, 6:01 p.m. UTC

TLE line 0: 0 SAUDISAT 1B

TLE line 1: 1 26549U 00057E 25293.75077880 .00002908 00000-0 31354-3 0 9999

TLE line 2: 2 26549 64.5525 25.1715 0017991 346.4570 13.6055 14.90252362355919

Live tracking on map

Real-time ground track for satellite SAUDISAT 1B.

In-orbit conjunctions

A list of the most updated potential collisions computed for object SAUDISAT 1B.

Target Orbit TCA Probability of collision Miss distance Type
PEGASUS DEB LEO 2025-02-21 13:01:56 0.0006009976 964.0 (m) DEBRIS
FENGYUN 1C DEB SSO 2024-09-28 16:26:03 0.0005333251 272.0 (m) DEBRIS

Associated space launch

Four small satellites were launched atop the Dnepr launch vehicle : MegSat 1, UniSat 1, TiungSat 1 as well as SaudiSat 1a and 1b. MegSat 1 is the second MegSat satellite. It is a LEO communications satellite. UniSat 1 is an Italian satellite developed and operated by GAUSS (La Sapienza University of Rome). TiungSAT-1 or MySat (Malaysian Satellite) is the first microsatellite for the Astronautic Technology (M) SDN. BHD. Company (ATSB) in Kuala Lumpur, Malaysia. Saudisat-1a and Saudisat-1b (Saudi Arabian Satellite) are the first Saudi Arabian micro satellites.

SAUDISAT 1B was lifted into orbit during the mission ‘Dnepr | SmallSat Rideshare’, on board a Dnepr space rocket.

The launch took place on Sept. 26, 2000, 10:05 a.m. from 109/95.

For more information about the launch, click the button.

Launch to space Dnepr | SmallSat Rideshare
Dnepr | SmallSat Rideshare

Agency: N/A

Status: Launch Successful

Launch date: Sept. 26, 2000, 10:05 a.m. UTC

Rocket: Dnepr

Launch pad: 109/95

Location: Baikonur Cosmodrome, Republic of Kazakhstan

...

Latest news about this satellite

There are no fresh news available about this satellite. Check back as we update our databases every day.


Newsletter sign-up

Weekly statistics, charts and insights to help you stay on top of the space industry.